GFSFLT2_sfc_rhum_072.txt.gz
RH
82 80 85 96 95 92 90 87 85 84 85 87 86 85 83 82 82 82 82 81 81 82 82 83 82 82 82 84 79 70 33 32
96 96 96 88 92 94 93 90 89 88 86 85 85 84 85 85 84 84 84 83 79 81 85 84 81 79 77 76 71 63 34 30
97 96 95 89 78 89 88 89 87 85 79 82 71 48 45 49 80 86 84 82 78 77 78 78 76 71 66 62 56 33 32 29
97 95 96 94 86 85 74 68 51 47 50 50 42 48 42 46 71 84 80 78 74 69 68 63 57 31 32 47 30 33 28 26
95 95 91 92 91 92 94 67 61 54 52 44 52 50 54 51 55 50 50 57 39 40 39 32 39 34 35 36 31 27 24 21
91 91 85 83 78 69 72 62 59 57 59 56 56 51 58 58 51 48 49 40 46 42 41 44 41 38 35 34 31 23 21 18
90 84 85 83 82 78 68 65 60 56 62 59 53 55 62 57 57 50 45 44 40 41 39 35 35 32 29 28 27 29 28 23
91 92 82 81 69 71 65 62 60 59 59 60 67 62 68 68 63 50 45 39 37 36 32 28 27 28 30 30 29 26 27 30
89 85 78 74 65 59 56 54 52 52 62 74 74 77 73 68 53 46 41 41 45 36 33 30 25 23 28 28 26 29 26 28
66 54 66 73 62 54 51 50 57 63 64 69 70 67 63 57 49 46 44 39 35 34 30 28 28 26 29 25 26 26 29 28
51 56 66 69 64 52 52 59 65 69 78 66 70 64 60 51 48 49 46 39 38 32 33 33 32 28 25 29 31 27 30 21
49 59 70 69 68 66 61 63 76 80 73 67 70 58 58 53 48 49 40 39 38 35 39 35 34 33 24 27 35 30 29 30
55 62 69 67 62 55 57 72 81 83 74 70 67 66 57 53 44 47 43 41 40 44 42 44 39 39 39 35 34 38 38 32
56 58 65 62 48 47 53 62 78 76 61 70 62 61 56 51 48 46 44 42 46 46 45 41 41 42 42 39 35 30 34 33
50 51 53 57 52 46 55 60 66 68 65 71 62 62 54 47 48 46 48 41 42 47 46 48 43 44 47 39 31 28 26 26
45 45 50 56 58 55 62 56 62 61 67 63 55 58 49 46 47 49 48 40 45 46 44 48 48 43 39 35 40 37 28 28
52 51 56 58 64 62 61 60 61 70 89 82 62 58 51 46 48 50 48 42 48 54 54 53 43 40 32 31 34 34 37 41
60 58 59 60 65 68 68 67 73 76 86 83 60 52 52 52 45 49 49 51 53 54 66 68 51 38 33 33 33 33 33 36
61 59 57 59 67 70 77 74 74 72 74 71 54 52 53 54 51 53 49 50 72 82 76 46 42 40 41 34 36 38 37 37
58 56 56 58 67 74 74 70 70 68 71 60 54 52 50 51 53 50 50 81 86 78 55 42 44 46 47 45 38 38 37 37

GFSFLT2_sfc_rhum_075.txt.gz
RH
81 84 89 93 93 92 90 86 85 85 85 87 86 85 84 84 82 82 84 85 86 84 84 85 82 82 79 76 70 70 30 27
90 90 86 91 89 95 94 91 91 90 89 87 86 86 85 84 84 85 84 84 84 83 84 84 80 78 74 69 66 65 29 25
97 96 91 88 86 91 88 89 89 88 84 82 69 55 53 56 87 86 82 83 83 81 80 79 74 66 60 58 62 28 25 24
96 94 90 91 89 83 75 64 56 53 55 50 38 50 48 49 79 85 81 79 78 78 76 76 65 35 34 51 29 29 23 22
93 94 94 96 92 90 84 53 50 52 60 50 48 50 57 57 61 52 53 59 42 45 47 36 40 36 37 35 26 23 21 19
92 92 92 90 73 74 71 78 60 60 57 63 68 60 62 59 48 48 50 40 44 42 42 48 43 37 33 31 29 24 22 19
95 91 89 90 77 67 62 75 61 62 63 63 62 61 72 62 57 46 43 44 44 44 44 39 36 31 28 26 25 27 27 23
93 95 94 90 86 82 83 72 63 60 70 64 68 79 81 73 58 49 48 44 40 40 38 31 27 29 31 29 28 25 26 28
93 95 93 92 87 78 61 56 54 56 69 71 64 72 70 66 57 57 45 43 46 39 33 30 27 25 29 28 24 28 25 26
88 85 89 86 73 55 51 47 56 65 62 74 70 71 68 64 53 48 45 45 38 34 31 30 30 29 31 27 27 26 28 27
90 86 84 79 60 56 51 58 72 76 79 79 68 64 62 52 47 48 49 41 38 34 34 35 35 31 27 30 33 28 29 19
65 76 77 70 71 62 56 60 72 75 80 72 68 56 58 51 47 52 44 38 38 35 41 36 35 36 28 30 36 34 30 30
48 54 68 70 70 54 50 50 71 82 74 66 64 57 56 54 47 51 43 40 40 47 44 47 42 40 41 37 34 39 40 34
45 47 60 61 46 43 41 45 65 69 64 67 65 69 66 53 50 48 44 40 47 48 46 43 42 43 46 43 39 33 35 35
43 50 56 60 44 37 40 57 58 71 70 65 63 60 55 52 49 47 46 44 46 50 48 48 45 44 47 47 41 35 33 27
45 46 55 58 60 43 48 64 61 59 64 64 69 74 61 51 47 46 49 44 46 49 45 49 51 47 54 37 41 42 42 41
46 44 42 47 54 60 48 50 50 61 70 67 77 75 63 49 46 49 52 45 48 49 55 56 49 60 61 38 37 34 36 39
48 43 40 44 62 63 58 56 52 61 71 72 73 75 60 53 46 51 51 50 52 55 62 60 68 55 39 38 35 34 34 36
47 45 44 45 58 68 65 62 61 72 72 70 74 68 60 55 52 55 53 53 54 65 69 74 64 55 45 39 32 34 36 38
46 46 48 46 52 63 65 62 63 65 66 65 71 68 58 55 58 55 53 53 63 66 69 72 66 61 49 45 39 36 36 36

GFSFLT2_sfc_rhum_078.txt.gz
RH
90 86 87 93 92 91 89 88 87 87 86 87 87 86 86 87 89 91 92 90 87 85 86 86 84 78 72 70 76 76 57 47
99 95 93 95 92 93 93 93 93 92 89 88 87 86 87 87 87 88 88 87 84 83 86 85 80 72 68 63 67 71 47 52
98 98 94 92 90 92 92 91 90 89 86 83 76 64 70 73 87 88 88 86 85 82 83 79 73 66 63 60 63 44 38 46
97 97 97 92 89 89 87 79 72 71 67 68 62 71 73 77 86 87 87 86 84 83 80 75 67 54 54 62 44 41 39 42
95 93 93 94 94 93 92 87 69 70 70 66 69 71 76 82 78 72 76 75 61 67 71 61 58 59 53 49 44 39 45 52
95 93 90 88 88 89 83 75 84 67 67 73 74 78 76 77 68 68 70 65 64 65 70 65 57 46 44 44 43 43 43 60
94 94 92 88 83 80 82 82 68 71 74 76 77 77 81 78 74 69 63 66 68 66 65 61 50 44 43 39 40 40 40 56
96 95 92 84 87 85 90 77 79 80 85 80 76 85 88 86 77 73 69 66 65 68 65 53 52 48 44 40 40 41 38 42
94 95 94 95 94 89 81 82 80 79 82 77 78 83 85 81 78 75 70 71 70 62 52 51 48 40 44 42 45 38 42 37
89 88 92 91 91 91 87 75 76 81 83 83 77 77 82 80 77 76 74 68 64 60 57 55 55 53 51 48 44 40 38 36
90 90 94 91 86 80 68 64 80 83 85 81 72 81 81 86 82 79 70 69 67 57 58 59 58 52 48 51 52 51 44 30
86 85 87 84 83 70 66 74 74 78 84 88 79 79 78 80 77 74 70 66 66 63 60 57 60 61 40 47 58 55 51 49
77 77 80 81 88 74 66 69 84 90 85 77 80 78 74 77 70 73 73 66 64 66 68 64 64 65 66 68 68 63 56 54
75 73 78 76 77 62 58 64 76 86 83 82 82 80 77 72 74 72 72 68 72 70 69 72 69 70 73 71 73 69 65 59
62 67 70 68 69 62 57 69 81 86 88 85 78 84 84 84 73 72 70 71 74 75 70 67 75 73 66 70 72 70 65 58
51 50 64 67 68 56 58 58 72 74 85 77 75 80 76 69 65 70 71 71 72 75 67 73 69 75 72 59 64 61 70 69
53 50 57 62 67 74 60 74 75 81 79 83 84 85 84 90 76 71 72 71 75 72 78 70 75 71 69 57 59 65 68 68
57 55 57 62 68 70 74 72 71 72 81 87 85 85 86 80 69 70 74 70 73 79 79 78 75 66 66 60 61 58 58 64
57 55 53 56 70 69 71 71 71 72 78 83 84 85 82 76 73 74 75 72 77 81 83 81 72 73 65 63 61 58 58 61
54 52 53 48 66 71 70 71 67 74 76 84 79 79 76 73 76 71 76 77 84 82 83 81 74 76 63 67 64 60 61 60

GFSFLT2_sfc_rhum_081.txt.gz
RH
97 90 87 91 91 90 90 88 87 88 89 90 91 92 92 93 93 92 90 87 84 83 84 81 75 72 71 75 76 71 65 70
96 98 94 94 93 92 92 92 91 91 90 90 91 92 93 94 92 90 88 85 84 84 83 78 72 66 68 69 72 72 71 76
98 97 98 95 93 94 93 92 90 89 87 87 85 82 85 88 91 89 87 85 85 84 81 75 70 61 60 68 62 53 56 68
98 99 99 97 93 92 87 78 78 75 69 71 77 83 83 86 90 89 87 85 83 81 78 76 66 56 53 60 48 49 50 68
98 98 98 97 96 95 91 82 72 71 71 67 82 83 86 85 86 87 84 80 74 78 75 64 60 58 49 48 46 57 66 74
96 94 94 92 87 90 82 79 77 73 65 77 79 84 82 75 75 78 73 73 73 74 77 64 52 46 45 44 42 56 71 84
96 92 89 84 76 67 61 60 54 71 80 82 77 80 80 84 76 78 73 72 75 75 68 60 51 47 46 44 42 45 67 74
92 94 94 89 87 84 89 80 84 87 90 87 86 92 92 92 76 76 78 73 70 70 70 54 52 47 44 42 43 43 58 72
93 93 87 91 93 91 89 90 87 87 87 80 84 90 88 88 87 80 75 73 73 71 63 59 57 49 45 47 44 45 40 55
90 86 91 93 90 92 91 90 90 87 84 90 86 86 83 92 91 84 82 77 67 61 57 57 53 55 55 53 52 46 40 40
91 88 88 93 93 91 85 84 85 85 87 92 76 78 87 91 92 89 81 71 68 57 65 59 62 62 54 59 54 54 44 37
82 77 83 90 88 74 65 70 80 88 90 85 75 80 82 93 93 88 81 73 70 66 61 68 63 64 47 51 62 58 56 54
85 91 92 89 86 75 64 65 87 89 87 81 82 81 80 94 84 89 76 71 67 68 70 64 70 71 69 73 75 71 60 57
86 88 90 82 81 65 68 69 80 83 86 87 84 87 92 92 80 82 78 74 73 72 69 76 78 75 78 79 77 71 70 61
80 80 83 77 76 72 75 83 92 90 90 88 89 92 96 90 78 79 80 80 75 75 75 75 77 79 70 73 75 75 69 65
68 67 72 75 78 78 78 69 80 88 94 93 96 95 90 88 84 76 75 74 70 76 73 80 78 82 81 66 68 66 71 69
69 72 74 75 76 80 77 82 80 93 94 92 95 95 90 87 86 82 73 75 76 76 79 81 80 80 76 66 60 73 72 70
67 64 68 72 75 77 81 66 80 85 92 95 96 96 95 92 88 85 77 74 76 72 82 78 77 73 68 70 62 62 56 65
60 58 60 70 76 76 78 78 76 83 89 93 94 93 95 93 90 86 77 79 84 78 81 77 72 72 73 64 64 59 62 66
55 54 55 63 72 76 76 81 75 79 84 91 90 88 90 91 88 86 82 82 80 83 83 82 78 80 67 67 67 65 65 64

GFSFLT2_sfc_rhum_084.txt.gz
RH
96 94 93 95 96 89 88 88 89 89 89 90 91 91 91 91 90 89 86 82 80 81 79 76 73 71 77 80 80 80 84 79
96 98 95 94 96 93 92 92 92 94 95 95 96 96 95 94 91 88 84 82 82 79 75 73 72 71 79 81 82 80 89 92
98 96 92 96 95 94 94 94 93 94 94 95 95 90 91 92 90 87 84 84 82 78 75 77 71 73 74 72 69 67 74 84
98 98 98 97 96 93 92 85 84 88 87 86 89 90 92 89 90 89 87 84 81 80 78 70 65 47 52 61 53 55 66 76
96 97 98 97 99 96 88 78 78 78 82 81 86 91 95 91 89 86 84 82 74 73 68 67 55 48 48 54 60 64 74 78
99 97 96 95 98 98 87 76 76 76 81 85 84 88 89 90 86 86 81 81 76 78 77 58 52 48 47 53 61 69 81 89
97 95 95 93 90 88 76 72 68 75 78 81 75 77 80 81 82 81 76 74 77 80 66 54 50 49 48 46 56 68 71 81
93 91 88 84 83 80 78 71 86 88 90 88 83 88 93 85 79 77 76 76 78 74 63 55 51 47 47 46 51 67 67 76
94 90 86 85 84 75 60 87 90 89 92 89 86 88 89 82 82 84 80 80 79 76 63 60 56 47 46 48 48 58 68 72
89 87 90 88 93 90 90 92 92 89 90 92 89 89 90 93 93 85 85 82 81 75 67 63 62 57 55 55 52 47 49 72
94 91 91 93 92 92 91 86 87 89 88 88 83 89 90 92 93 88 86 82 77 64 65 61 64 64 58 60 60 54 46 50
91 90 91 92 90 92 92 88 78 85 87 88 82 85 94 95 93 93 85 75 72 67 64 71 68 68 47 54 65 62 57 57
84 87 92 89 82 79 80 75 76 90 88 83 88 85 89 95 95 92 83 70 69 66 69 70 75 76 72 77 80 79 66 62
80 82 90 79 74 62 60 57 89 92 90 90 87 84 86 92 90 89 74 73 73 75 72 77 76 80 77 80 74 69 71 63
89 84 85 79 73 74 82 85 94 95 95 94 89 86 89 90 86 87 78 70 70 75 74 72 81 83 76 75 82 74 75 68
86 84 82 78 78 72 75 66 74 90 90 88 93 92 93 92 85 82 78 81 79 73 70 78 81 80 84 72 73 73 72 68
88 83 83 75 78 78 75 89 87 93 95 93 93 96 95 95 92 88 92 82 78 74 80 81 82 85 81 81 73 77 73 69
84 77 77 75 78 79 80 81 83 89 88 91 92 94 95 94 89 89 84 82 81 70 72 84 84 82 76 70 68 67 69 74
77 72 72 70 74 76 81 84 83 82 86 88 94 96 97 94 92 93 86 82 81 75 80 81 80 73 73 73 70 62 61 64
69 68 71 73 77 79 79 81 79 78 79 88 91 88 88 86 90 93 90 86 87 90 89 90 94 96 94 90 86 76 66 64

GFSFLT2_sfc_rhum_087.txt.gz
RH
97 91 93 88 86 88 91 89 88 88 89 89 87 89 88 86 85 84 83 81 76 74 74 79 81 82 83 85 85 83 91 83
98 94 94 93 90 89 91 92 91 90 92 94 95 93 92 90 87 84 81 79 74 73 75 81 84 84 85 87 88 87 95 93
98 96 95 94 94 96 92 91 94 94 96 97 95 88 94 91 87 83 80 79 78 75 74 82 84 84 84 82 79 86 93 97
96 98 96 94 95 95 94 91 92 88 89 89 85 87 92 89 89 87 84 81 81 75 70 67 62 68 70 68 68 74 83 90
98 99 97 94 90 93 96 98 97 91 91 83 84 89 93 90 88 82 79 81 68 68 65 50 52 57 58 59 60 62 76 83
99 96 96 97 93 95 96 97 90 90 89 87 91 91 93 89 87 87 81 81 74 75 66 56 53 54 58 61 63 74 87 93
99 96 96 97 96 96 96 92 83 84 89 92 91 92 92 88 92 82 78 83 82 68 58 53 52 51 57 62 66 72 77 90
95 95 96 94 95 96 95 79 87 85 89 90 88 89 91 87 85 78 81 83 83 62 57 54 53 52 54 60 67 68 74 83
93 91 90 91 92 87 86 86 88 87 90 90 89 90 89 78 81 76 79 85 80 69 60 59 56 50 52 56 68 68 69 77
89 85 87 84 81 85 89 90 93 91 88 90 90 88 81 87 90 83 86 86 81 71 68 64 63 58 58 56 56 67 70 76
95 91 91 87 92 95 94 92 92 93 94 91 91 90 87 86 92 90 89 89 86 70 70 64 65 63 58 64 63 57 61 66
95 94 92 91 92 93 94 91 91 89 90 90 89 91 91 93 93 93 92 87 83 72 66 70 68 67 49 56 66 64 60 72
93 94 93 89 91 82 83 91 93 91 87 84 83 89 94 95 95 94 88 80 77 70 71 71 78 78 76 81 82 78 69 67
89 89 91 85 81 61 65 74 83 87 88 86 86 85 94 93 94 94 84 79 77 73 71 77 77 82 78 83 79 76 81 71
84 87 88 79 72 65 67 77 90 89 89 91 88 87 88 93 94 92 89 81 76 72 73 70 78 86 81 76 83 77 80 72
88 88 87 84 80 72 72 67 67 64 84 88 92 90 90 90 90 91 88 86 83 74 72 76 78 79 88 77 76 76 72 70
96 88 86 80 84 83 78 76 78 91 95 92 94 94 89 86 91 90 90 83 78 81 81 76 72 75 77 83 78 79 76 71
97 92 86 82 82 82 85 80 86 91 91 96 96 94 94 95 96 91 89 88 89 87 86 81 76 79 75 73 72 71 74 74
95 91 88 81 81 78 78 78 85 85 81 88 92 95 96 95 97 97 93 90 90 91 85 80 84 81 77 86 81 82 74 80
89 86 83 80 80 76 74 76 76 83 82 87 91 87 85 90 95 94 95 93 94 92 93 90 89 94 91 94 91 91 90 87

GFSFLT2_sfc_rhum_093.txt.gz
RH
98 98 92 92 95 88 90 89 89 88 86 83 82 84 83 83 83 81 80 82 83 87 83 84 83 82 82 83 82 72 46 47
93 96 94 89 93 84 92 90 91 90 88 87 87 86 86 85 84 81 84 89 87 86 84 84 84 84 84 85 84 75 46 46
93 94 89 84 86 85 95 92 91 92 91 91 86 71 69 71 72 82 85 88 86 84 84 85 87 86 87 87 76 48 49 46
92 89 90 94 97 92 95 86 82 84 83 83 74 78 70 61 70 82 84 86 85 85 87 88 71 56 62 76 50 55 50 48
87 88 90 92 97 98 97 98 90 93 82 86 84 78 74 63 61 58 69 80 66 67 70 55 61 57 57 59 60 57 53 48
90 90 93 92 96 99 98 96 96 93 83 88 93 81 75 67 57 56 60 62 67 64 59 64 62 60 61 66 63 56 53 50
90 90 92 93 98 97 97 93 94 95 91 85 89 77 76 64 64 53 52 56 59 58 57 52 54 54 53 57 63 62 61 53
91 96 92 96 98 94 97 90 82 93 96 89 88 75 75 66 64 56 54 50 50 51 50 46 42 42 44 44 46 54 61 61
96 91 92 97 97 95 95 92 91 91 95 93 89 82 75 69 66 60 52 52 56 50 49 45 42 39 44 46 46 52 56 66
92 89 94 98 98 96 94 94 93 95 96 96 92 83 73 74 64 60 60 54 48 49 45 45 45 42 47 44 44 47 60 68
96 91 94 98 98 98 96 95 96 96 97 97 93 83 75 70 69 64 66 56 55 48 48 46 46 42 44 48 50 46 53 63
94 95 90 94 97 98 97 96 96 96 95 94 90 83 79 76 74 71 63 55 54 49 51 48 43 43 33 43 49 50 55 56
95 96 96 95 94 96 95 94 96 96 93 89 86 81 79 80 71 74 67 61 56 58 55 57 52 51 48 49 51 51 52 50
92 93 96 90 86 94 95 91 91 92 89 87 85 83 82 82 72 76 67 66 65 63 59 67 60 61 47 46 48 49 49 48
90 88 92 92 88 91 95 95 94 86 84 87 75 77 84 82 74 76 79 71 68 68 67 60 61 61 59 49 59 51 52 55
85 85 90 88 80 79 86 84 89 78 76 75 84 81 90 87 80 76 75 76 74 72 72 73 63 54 57 58 62 55 50 53
83 85 83 80 77 80 76 77 78 83 81 76 84 88 89 91 90 86 80 72 78 82 77 72 75 69 65 65 65 55 56 51
84 85 85 84 82 77 75 77 75 69 76 82 84 81 85 85 82 86 80 76 80 82 84 81 81 81 68 76 72 64 68 78
82 82 83 81 81 76 75 75 71 65 63 64 76 74 70 72 76 77 74 79 79 78 80 83 84 82 75 77 82 74 71 79
79 77 76 77 77 75 70 68 64 63 62 61 65 62 63 66 72 70 73 75 78 80 82 83 85 90 86 86 86 77 72 64

GFSFLT2_sfc_rhum_096.txt.gz
RH
79 94 96 97 88 92 92 90 90 88 85 83 83 84 84 83 81 83 84 84 86 83 84 84 83 82 81 81 76 72 32 32
86 89 97 98 92 95 92 90 92 89 85 85 86 85 86 85 86 84 84 87 86 83 84 84 83 83 84 83 75 68 33 33
88 87 86 93 82 80 84 95 92 89 87 89 87 66 69 70 71 86 86 88 85 84 85 84 85 85 84 81 77 32 34 33
85 87 83 82 78 71 77 94 85 80 81 74 54 67 62 52 74 91 91 89 85 85 86 87 70 44 50 71 33 37 34 35
87 81 91 87 85 79 94 93 90 90 84 71 67 59 61 59 58 63 69 78 58 60 64 42 43 40 41 37 41 39 35 35
80 84 78 85 87 94 93 93 90 94 86 76 73 67 65 60 46 49 56 51 54 50 46 46 46 42 41 45 43 36 35 36
76 77 80 89 82 94 96 93 98 93 89 81 72 65 69 56 48 46 46 44 48 49 46 48 47 44 42 43 42 41 42 36
75 75 80 83 88 86 97 95 94 94 93 88 79 74 71 59 49 44 45 45 44 45 46 41 39 40 43 42 42 40 41 41
80 86 78 86 87 92 93 97 93 91 94 88 85 77 71 64 54 44 41 43 50 46 45 38 33 30 34 34 35 41 40 44
89 84 84 86 94 97 95 96 92 90 94 94 86 78 68 62 48 46 41 44 44 43 40 36 35 31 32 31 32 35 42 46
92 84 89 96 97 97 94 95 94 90 93 96 90 79 68 51 50 47 49 44 43 42 40 41 40 34 31 32 34 33 41 40
92 85 89 94 98 98 98 96 97 96 94 95 93 81 70 61 56 55 47 42 44 41 45 41 39 36 27 32 37 35 37 43
93 92 90 92 94 98 97 98 97 98 96 96 94 79 66 65 52 57 49 47 47 50 47 49 44 42 36 38 41 45 46 39
90 90 90 87 88 96 97 95 96 96 96 96 93 81 66 62 56 59 54 48 54 55 53 49 49 52 50 39 44 40 39 40
80 80 91 87 89 92 95 96 96 95 96 96 92 85 68 64 53 54 55 51 54 57 56 56 53 56 50 43 46 47 39 36
70 71 86 84 83 82 88 89 85 80 86 81 86 87 83 71 58 55 60 56 59 60 54 56 53 54 53 47 53 49 47 53
76 70 85 82 78 82 85 83 79 92 84 69 78 81 79 80 78 77 66 61 66 65 64 63 54 52 51 54 53 50 49 56
76 74 79 80 71 69 76 73 79 87 88 81 69 75 68 71 72 75 73 62 61 63 65 69 67 64 55 63 58 60 52 56
72 73 78 74 69 69 76 69 69 75 73 73 57 60 71 76 73 80 71 64 59 61 66 69 69 70 74 66 75 70 67 62
71 70 72 74 76 74 64 58 67 63 58 54 62 54 54 57 59 58 68 69 65 66 70 65 67 71 74 72 73 72 77 81

GFSFLT2_sfc_rhum_102.txt.gz
RH
75 81 78 92 92 92 93 96 98 86 88 86 89 89 87 83 83 81 82 83 84 84 85 84 81 78 75 74 73 73 42 49
76 80 79 81 85 89 90 85 88 91 89 83 85 88 85 85 84 84 85 85 85 86 85 83 82 79 76 74 74 74 42 48
80 83 79 85 88 92 90 85 89 95 90 87 94 81 80 82 81 86 86 86 86 86 86 85 82 76 76 76 78 48 44 55
78 83 81 85 92 94 95 93 93 93 82 89 84 82 79 70 86 87 86 86 86 86 86 83 68 67 68 73 63 47 47 59
74 79 85 90 96 97 98 97 96 93 88 91 85 77 80 90 91 83 86 84 78 80 78 59 55 56 60 63 61 49 53 60
75 78 84 88 90 96 97 99 99 99 91 84 81 76 85 88 87 79 75 70 73 72 64 62 58 55 58 60 53 49 58 65
79 78 87 88 89 94 97 97 96 98 97 88 75 75 87 90 85 78 64 63 64 64 61 60 58 57 59 54 54 51 58 63
76 78 81 88 90 88 90 94 86 96 98 88 81 76 87 83 76 74 68 62 61 60 58 58 64 59 62 57 53 54 54 63
73 75 77 81 84 91 92 92 89 93 96 94 88 80 84 75 71 80 67 62 67 62 62 66 65 54 59 61 57 56 52 58
71 72 78 80 83 89 93 92 90 92 90 93 92 88 78 73 69 67 62 63 63 61 62 67 66 62 63 61 60 57 59 59
80 79 84 84 84 87 93 90 92 93 89 92 90 86 90 74 66 84 73 60 64 68 70 66 66 60 55 60 61 61 62 49
83 83 84 83 93 93 94 95 94 93 90 90 92 92 90 83 78 78 82 78 70 65 66 65 63 61 33 48 61 60 61 69
79 86 87 90 94 97 97 96 96 97 94 86 89 91 86 83 71 75 74 71 82 71 71 68 68 65 66 68 64 60 64 64
78 83 88 85 88 92 96 96 94 93 98 90 88 89 84 75 72 76 67 73 73 72 71 74 71 68 68 69 76 68 64 63
77 76 86 86 86 90 96 98 97 97 96 97 88 85 83 82 79 80 74 68 77 74 75 70 75 71 66 71 74 74 72 70
69 77 86 85 84 86 94 98 98 98 95 94 94 87 87 86 87 82 81 77 76 77 73 74 73 75 73 67 72 76 84 81
69 77 84 81 86 84 93 98 98 98 98 98 95 93 88 87 89 81 77 76 82 81 82 77 78 72 72 75 75 78 83 85
75 76 80 84 87 85 88 93 96 97 98 98 97 95 92 91 82 88 87 86 86 83 80 79 83 80 73 74 78 81 80 86
78 77 82 84 86 86 86 89 90 93 93 95 96 94 93 91 86 93 91 84 79 85 87 86 86 86 83 86 84 79 81 84
74 77 78 84 86 86 85 82 86 87 87 88 88 88 85 83 84 82 80 73 80 83 82 88 90 92 88 86 85 89 88 87

GFSFLT2_sfc_rhum_105.txt.gz
RH
93 92 88 91 96 93 94 90 86 80 91 86 84 84 87 84 83 82 82 82 84 86 84 82 81 78 75 71 78 70 64 66
90 91 89 92 96 91 94 93 92 84 93 90 88 87 88 87 85 84 84 85 86 85 83 82 79 77 72 80 72 70 64 70
90 92 88 92 93 94 92 93 96 95 95 98 92 87 87 82 83 86 86 86 86 84 84 81 79 75 75 77 71 58 67 71
93 93 93 94 95 97 97 94 93 93 92 96 95 90 88 78 87 88 87 87 86 84 83 81 75 70 69 69 58 63 68 70
92 94 93 90 99 99 99 99 97 95 91 90 96 93 90 91 91 88 90 87 80 78 76 72 65 68 65 63 62 65 70 70
90 92 94 96 99 99 97 98 98 98 96 92 90 96 95 87 88 91 88 83 86 82 71 67 62 60 62 65 58 67 72 75
92 94 95 95 98 98 99 99 98 98 95 92 92 95 93 87 88 85 80 82 80 73 73 59 62 59 61 63 62 70 72 74
92 88 94 95 97 97 99 99 99 99 95 93 91 86 87 83 81 75 74 74 70 63 70 74 70 65 67 62 63 69 70 76
89 82 90 95 96 95 98 97 99 99 98 94 90 87 86 84 78 72 70 68 66 75 73 77 74 66 64 65 64 68 71 72
87 82 86 92 92 97 97 96 94 97 98 97 93 92 88 86 80 69 73 67 66 75 77 75 73 70 72 71 67 66 71 72
92 86 87 90 92 96 98 94 94 96 95 95 94 92 91 86 84 78 76 67 72 75 82 70 68 73 68 71 71 74 71 66
93 93 93 96 97 95 98 98 97 94 94 94 96 90 85 89 86 81 85 71 82 90 70 68 65 67 47 59 71 71 73 74
93 90 93 98 99 99 99 99 98 96 92 94 93 90 86 89 80 83 84 74 85 79 66 64 69 67 70 71 72 68 70 73
85 89 92 97 97 98 97 98 98 96 93 94 91 89 88 85 75 79 78 85 86 79 67 78 70 79 66 73 75 67 69 68
80 86 93 96 93 96 98 98 99 96 99 96 92 87 88 81 78 75 78 85 79 81 66 74 78 82 56 70 79 75 78 75
75 82 90 91 90 92 96 94 97 96 91 95 93 90 87 82 78 75 76 82 81 81 73 75 74 73 74 68 73 76 83 81
76 82 90 87 89 93 96 99 99 96 93 95 94 92 88 82 84 80 83 80 77 74 85 85 78 80 76 76 78 86 89 90
77 86 88 86 90 93 94 98 98 99 98 97 98 93 92 84 87 88 89 90 88 87 87 87 91 85 73 75 79 81 83 92
81 85 88 91 91 94 96 97 91 95 95 94 97 98 96 95 90 92 96 96 94 91 90 89 89 93 84 81 83 80 84 86
81 82 83 90 89 93 95 96 95 89 93 92 92 93 94 94 92 91 98 96 95 95 93 91 91 91 92 93 90 82 85 89

GFSFLT2_sfc_rhum_108.txt.gz
RH
97 97 95 96 98 97 96 94 87 88 88 86 86 86 88 83 85 84 82 84 84 86 86 85 82 79 80 79 80 78 71 71
97 96 94 95 98 95 96 97 94 85 92 90 92 89 87 86 86 86 86 86 87 86 85 84 80 79 79 79 81 78 70 76
97 96 96 95 96 95 93 95 97 91 90 90 92 84 90 90 84 87 87 87 87 86 84 83 81 82 79 80 75 68 72 75
96 96 95 96 96 96 97 97 98 95 92 93 92 87 91 90 90 88 88 89 88 86 83 83 76 72 67 72 70 72 72 75
96 96 95 97 99 99 100 99 99 98 96 94 93 93 95 93 92 89 91 90 92 86 78 72 68 68 67 66 72 74 75 74
95 96 96 97 99 99 99 99 98 98 98 96 97 97 96 97 92 88 91 90 88 78 82 74 70 66 68 69 72 76 79 80
95 96 96 97 98 99 99 98 98 98 96 96 91 96 95 92 87 88 91 94 89 84 73 71 67 67 71 68 75 79 81 79
95 96 96 97 99 98 98 98 98 98 96 95 87 92 95 91 88 91 91 84 80 73 80 71 68 66 72 72 76 79 80 84
94 96 96 96 97 97 98 99 99 98 96 93 87 92 96 89 89 86 83 80 79 80 83 74 69 67 73 75 77 79 82 82
93 88 96 96 98 97 98 98 99 98 96 93 87 86 92 87 81 78 78 79 68 73 83 81 74 76 79 80 80 81 82 83
94 94 95 95 96 98 97 96 99 97 98 95 89 89 89 85 78 73 76 72 65 74 83 77 74 80 73 83 84 85 83 75
94 95 96 96 98 99 99 97 99 98 96 96 95 93 87 86 80 75 77 71 70 80 73 81 71 77 57 69 78 82 81 82
95 96 98 98 99 99 99 98 98 98 96 92 95 94 90 89 77 80 76 69 73 79 77 72 81 74 73 74 75 78 85 79
96 96 98 97 98 98 96 99 94 94 94 93 91 94 89 86 79 74 76 74 79 81 72 75 74 70 73 75 74 69 74 79
94 95 93 93 96 98 99 99 99 97 97 97 96 91 87 85 81 74 75 78 86 77 70 63 63 80 62 73 80 75 76 71
94 94 88 92 96 97 96 98 96 96 96 92 93 92 89 84 82 80 79 80 79 77 66 71 64 64 82 73 75 72 80 75
91 94 91 91 92 90 94 96 95 95 95 98 92 95 88 85 83 85 86 84 85 76 82 85 82 77 72 83 80 84 90 78
92 92 90 91 91 93 95 96 96 96 95 95 97 95 95 90 87 88 89 88 87 92 94 90 94 87 83 76 78 78 83 88
94 90 95 90 91 94 94 95 96 95 94 96 91 98 97 97 94 94 94 93 94 95 95 96 95 94 89 87 82 78 79 86
90 93 94 90 91 94 93 97 93 94 94 95 94 95 95 96 94 91 92 93 94 94 96 97 97 97 95 93 89 89 84 83

GFSFLT2_sfc_rhum_111.txt.gz
RH
99 97 96 96 98 97 97 95 93 89 88 86 88 87 88 86 84 84 84 83 84 89 88 85 82 82 85 84 84 78 67 70
99 99 99 99 94 98 98 97 94 92 89 90 90 89 88 89 84 86 86 86 88 87 86 83 81 84 84 86 84 81 79 78
98 98 98 99 99 98 98 97 98 92 90 89 93 90 87 84 87 89 87 89 90 88 86 83 84 85 85 85 78 74 74 78
98 98 97 97 98 99 99 98 98 94 89 93 90 90 87 80 87 90 88 90 90 87 86 84 81 78 80 77 74 74 77 77
98 97 97 97 98 99 100 100 99 98 92 93 92 93 93 94 97 94 94 91 97 88 82 74 76 75 73 77 80 81 88 84
96 96 96 97 99 99 98 98 99 99 96 92 96 96 96 94 92 94 96 97 98 92 87 78 75 67 71 76 78 83 87 90
96 96 97 98 99 99 98 96 96 98 98 94 92 95 96 93 92 89 96 98 96 90 83 70 71 73 76 76 81 87 90 94
96 96 96 98 98 98 99 99 96 98 98 97 90 92 94 95 95 88 95 91 91 80 72 71 72 78 79 78 83 89 90 94
96 96 97 98 98 98 98 96 97 97 96 95 96 93 94 94 92 92 93 90 86 81 81 77 74 76 81 82 82 88 90 91
94 90 97 97 98 98 98 97 99 98 98 96 94 94 89 90 91 92 90 86 79 75 80 76 82 77 86 86 89 89 91 93
96 96 98 97 98 98 97 98 98 98 98 98 94 97 90 89 89 88 85 78 74 73 92 71 80 80 79 90 96 96 91 82
94 96 97 98 99 97 99 99 99 99 99 95 94 96 91 90 86 87 79 71 72 80 79 87 84 77 68 86 97 97 94 91
94 97 98 98 97 97 98 98 99 99 99 89 88 91 94 91 80 83 75 65 70 77 80 77 90 80 80 84 85 93 94 93
95 95 98 98 98 98 98 96 98 98 97 96 90 92 92 88 79 80 71 66 76 80 74 91 86 76 78 78 88 78 84 87
95 96 97 97 97 98 99 99 99 99 99 98 97 93 92 86 79 76 70 68 69 79 77 72 75 82 68 76 78 79 81 82
95 96 98 97 97 98 97 97 98 96 95 95 96 95 95 92 82 75 70 72 66 73 74 73 76 73 81 70 69 71 80 76
97 97 96 92 96 96 97 98 97 98 95 94 97 96 92 92 86 78 78 73 79 74 81 86 73 68 70 84 84 88 84 75
98 97 90 90 92 96 95 96 97 98 98 99 97 97 93 91 90 88 86 83 85 83 86 84 86 82 82 77 82 80 86 87
97 96 91 88 92 93 95 95 92 95 95 96 95 97 98 93 92 92 91 90 91 88 88 89 87 86 91 88 84 78 82 85
95 96 92 88 90 93 91 93 92 92 89 92 92 90 96 96 92 92 91 92 92 90 91 94 96 95 97 96 95 92 89 85

GFSFLT2_sfc_rhum_114.txt.gz
RH
99 97 96 97 97 97 97 96 94 92 89 86 86 84 84 84 86 84 83 82 86 88 90 88 89 87 86 84 83 79 80 78
99 97 96 98 97 98 98 97 96 92 90 90 87 83 83 86 86 87 84 85 88 90 89 85 88 87 86 85 84 82 79 80
99 96 93 94 92 96 98 97 96 93 89 88 89 86 86 86 84 84 84 89 90 89 86 84 89 88 86 86 82 81 77 80
99 99 98 97 97 97 97 97 96 94 90 90 89 93 88 83 86 88 85 89 90 89 85 86 88 85 84 80 79 80 79 81
98 98 98 99 99 99 100 100 99 97 92 91 94 95 93 91 93 94 91 91 91 87 83 85 85 84 79 82 82 80 83 82
98 98 98 98 99 99 99 99 99 99 96 94 96 97 95 94 95 94 94 91 95 91 84 88 88 82 80 82 84 83 86 88
95 97 97 97 98 99 98 99 98 98 97 94 94 95 95 94 95 95 88 89 89 93 83 81 81 79 80 80 82 84 86 89
94 96 96 97 98 99 99 98 95 96 97 95 92 94 95 96 96 94 94 87 90 84 78 79 78 80 84 81 84 90 92 94
95 95 96 96 97 98 99 97 96 96 96 95 91 91 94 94 94 92 94 91 92 82 82 83 83 82 87 89 88 92 92 93
95 92 97 97 98 98 98 96 95 97 97 97 95 94 91 93 95 96 94 90 85 78 76 85 89 85 94 93 93 93 94 94
96 96 97 97 98 98 98 94 97 94 96 96 95 94 95 91 92 95 92 88 84 79 79 75 87 90 87 96 96 94 93 87
95 96 96 97 98 96 98 95 97 98 98 97 94 95 98 92 94 94 88 86 82 78 75 85 89 87 76 92 97 95 95 95
96 97 97 98 98 98 99 98 98 98 98 97 95 93 91 95 94 91 86 78 76 75 72 77 94 91 93 93 91 94 95 95
96 94 97 96 95 92 97 96 97 97 98 96 94 98 95 92 92 88 80 74 78 76 72 86 91 84 90 88 92 87 92 92
94 95 95 97 91 89 99 98 99 100 99 98 97 97 95 91 87 84 80 71 74 73 73 69 82 89 73 80 85 90 89 90
95 96 94 98 98 90 95 92 96 98 97 96 95 97 96 92 85 81 75 70 71 73 72 71 80 81 82 72 74 77 86 83
97 92 94 97 98 96 92 96 95 96 98 98 97 95 94 94 90 86 79 76 72 72 83 86 83 73 79 82 83 85 81 77
94 92 95 97 97 97 97 97 98 98 97 98 98 98 97 95 92 90 84 82 82 80 84 88 89 77 81 80 80 80 83 83
92 91 97 97 97 96 97 96 93 96 96 95 98 97 98 98 94 92 88 82 84 79 88 89 88 85 86 86 82 80 83 86
90 90 95 96 94 95 94 95 97 97 95 95 95 94 95 94 93 91 86 80 86 86 87 87 89 92 92 93 93 91 88 86

GFSFLT2_sfc_rhum_117.txt.gz
RH
84 90 90 96 95 96 96 96 94 94 90 88 86 88 89 87 82 82 80 83 83 88 91 91 89 88 87 86 86 80 52 51
88 90 88 88 85 98 98 97 95 94 93 92 92 90 86 85 85 82 81 83 84 89 92 92 89 88 86 85 85 80 50 50
90 90 88 88 87 92 98 97 96 95 91 91 90 68 72 74 73 84 83 85 88 91 90 91 90 88 86 86 78 50 53 50
90 91 92 92 90 88 88 91 90 84 81 79 79 74 69 65 74 88 88 89 91 89 88 92 81 59 62 76 52 55 53 55
84 91 92 93 93 91 95 97 96 94 84 83 84 81 82 75 77 80 83 87 80 76 72 66 65 60 58 59 58 59 54 52
79 88 93 94 92 94 93 93 98 98 95 90 92 93 88 83 82 84 82 69 77 72 66 67 71 66 63 64 62 56 56 54
77 83 89 92 93 96 96 94 97 98 96 93 95 93 90 93 91 92 84 78 72 74 69 69 70 68 64 63 64 62 63 56
69 81 84 88 92 93 94 95 94 97 98 94 92 92 91 92 95 96 92 89 69 71 68 74 64 63 65 64 62 59 59 63
68 75 83 86 86 87 91 89 89 91 89 96 92 90 93 91 95 96 93 91 84 74 65 69 61 60 63 62 61 64 60 62
60 67 82 85 86 86 91 90 91 91 92 92 95 90 88 92 94 95 94 92 83 76 62 63 62 61 63 59 57 58 62 62
61 74 82 86 83 85 91 93 95 93 94 94 93 92 89 92 94 95 94 91 82 70 62 61 63 61 60 59 59 58 63 57
63 77 80 82 88 89 92 92 93 90 93 90 92 95 93 92 95 96 94 92 80 69 64 59 60 61 55 62 63 61 61 61
74 81 84 87 91 97 97 96 93 95 95 86 86 91 94 97 96 96 93 93 78 71 66 69 66 62 67 69 68 69 70 63
78 78 87 81 81 86 87 92 94 88 90 88 93 92 94 97 96 94 91 90 84 76 68 64 64 67 62 62 76 72 68 67
80 79 85 82 78 81 82 92 96 97 97 97 96 96 95 98 94 92 91 83 80 74 69 66 68 69 65 56 72 68 72 67
77 82 84 83 80 79 84 89 94 92 95 95 95 94 95 94 94 94 88 78 77 71 67 65 70 72 66 55 55 60 60 77
80 83 84 86 88 82 78 91 90 86 91 94 92 94 93 92 94 94 91 79 73 70 71 68 61 63 65 61 60 59 61 58
85 86 84 88 87 84 82 89 89 93 92 98 91 96 96 93 95 95 92 81 77 71 73 72 71 65 60 58 55 53 55 53
83 88 89 91 87 87 85 85 83 82 90 91 96 92 95 96 93 95 91 86 79 75 75 74 73 70 72 65 58 52 55 59
86 86 88 87 88 88 86 81 80 81 85 90 89 96 95 91 92 90 91 86 77 77 76 76 75 79 76 73 71 73 70 67

GFSFLT2_sfc_rhum_123.txt.gz
RH
55 68 77 95 95 95 92 88 93 96 95 94 91 90 88 88 89 88 88 89 88 90 94 93 92 91 89 86 82 82 49 35
55 63 69 71 76 97 94 90 92 95 96 95 94 92 90 90 90 90 89 89 88 92 94 93 93 90 88 85 81 78 38 28
57 64 65 66 64 76 95 95 93 96 93 95 92 63 65 71 73 87 89 90 92 94 93 92 91 90 87 85 83 33 32 27
54 61 69 66 61 68 71 69 69 69 69 74 72 67 63 52 64 88 90 92 94 94 94 93 82 66 70 78 45 33 30 32
46 56 66 68 71 74 64 59 61 61 67 64 72 63 66 57 77 59 72 89 74 86 90 81 66 58 58 51 45 38 30 39
41 48 62 67 59 71 75 59 58 59 58 68 71 68 73 62 71 70 58 64 76 72 88 84 64 51 46 45 50 34 31 40
37 47 58 62 65 70 75 59 62 57 56 65 64 66 67 64 71 68 55 68 78 77 81 70 57 42 42 56 48 37 36 35
33 43 52 62 68 78 74 65 55 61 57 64 72 66 67 60 64 74 71 81 86 92 76 79 54 47 53 61 41 37 37 41
26 34 43 57 68 79 76 66 59 57 59 70 71 77 73 66 67 79 80 92 90 93 77 76 58 53 62 60 41 40 37 39
15 14 34 49 57 70 79 75 69 61 67 75 76 79 73 76 71 73 86 90 96 97 86 85 59 48 61 57 40 39 40 41
19 21 28 43 50 53 70 84 84 73 62 67 84 83 80 81 81 83 84 86 96 97 98 83 55 48 60 59 45 39 42 35
27 25 31 35 47 56 54 70 78 83 75 58 72 79 82 82 88 87 86 92 94 97 94 79 49 50 54 55 49 57 47 43
29 32 38 33 36 48 56 68 84 84 83 67 76 84 80 90 90 91 92 95 92 93 92 84 61 57 66 69 63 64 57 52
35 34 37 36 34 43 54 71 83 82 78 71 67 73 87 84 86 94 92 96 94 95 93 86 66 69 62 65 80 78 68 52
39 35 36 41 42 46 75 81 86 91 84 75 69 71 75 82 88 94 95 93 96 94 94 88 69 66 64 58 71 68 72 62
44 41 38 43 49 57 81 84 85 84 80 79 70 69 69 69 76 89 96 94 94 94 93 90 74 68 63 53 51 47 64 77
52 48 45 50 58 59 74 84 69 70 68 77 77 74 68 69 80 89 97 96 94 92 95 90 75 70 60 60 53 46 54 54
42 53 54 69 74 75 80 81 70 68 65 74 74 81 80 75 78 89 92 96 94 94 93 90 83 71 61 54 50 49 55 50
44 39 54 66 76 77 83 81 77 66 68 72 79 90 86 83 84 95 96 94 95 93 93 91 81 72 66 56 50 48 44 44
50 42 43 60 70 78 88 82 76 58 60 68 69 79 87 87 92 92 92 95 96 93 93 92 85 86 75 62 53 51 45 43

GFSFLT2_sfc_rhum_126.txt.gz
RH
80 83 86 95 96 94 94 94 89 95 95 95 93 93 92 86 87 84 84 87 90 86 89 92 92 90 88 86 85 86 70 64
80 81 84 88 92 96 94 91 88 92 96 96 96 94 89 87 92 90 90 91 89 94 94 93 94 94 89 87 83 84 66 69
79 80 82 84 83 90 96 92 90 90 96 96 98 84 83 85 84 89 90 90 92 96 96 95 95 95 93 84 83 65 54 65
73 79 82 82 69 86 89 86 88 87 86 93 89 83 79 67 76 89 92 93 95 96 96 95 88 92 95 85 75 60 55 69
66 77 82 83 76 82 81 79 82 83 83 86 89 79 81 78 90 83 94 95 96 95 95 90 82 78 81 77 70 57 59 63
61 69 81 82 78 80 79 74 78 79 77 81 84 84 86 85 76 87 89 81 93 92 93 91 85 74 72 72 67 58 60 66
59 66 78 79 82 82 79 76 73 76 76 78 79 81 81 77 80 84 86 88 90 84 91 82 81 76 69 63 58 58 59 65
58 65 73 76 78 82 80 79 73 76 74 74 79 79 80 77 79 85 89 88 90 88 92 88 91 92 68 63 63 51 54 63
54 64 70 75 76 78 79 77 76 74 73 79 78 80 82 77 79 84 89 89 92 95 92 92 95 94 70 68 63 53 56 63
41 40 60 73 75 79 80 76 75 76 74 74 80 82 79 82 80 82 90 92 97 94 97 94 93 86 78 75 66 52 58 60
32 37 58 66 73 78 81 82 80 75 79 76 80 84 82 81 80 83 90 95 95 95 98 96 92 93 85 70 68 57 61 49
40 43 46 54 71 75 82 82 81 80 80 81 84 87 86 86 86 88 90 93 94 95 96 98 95 96 72 76 69 56 60 63
41 46 52 52 61 68 71 88 85 84 80 83 83 83 86 88 92 92 88 94 93 94 95 94 97 93 86 88 85 61 60 66
42 46 51 51 45 51 61 68 83 84 84 84 83 83 84 89 93 94 90 96 93 94 93 95 92 97 84 79 92 86 75 65
48 48 50 56 53 49 72 86 89 94 93 91 83 89 89 89 90 95 94 95 95 94 92 89 90 94 87 68 84 89 77 76
54 56 53 50 60 58 84 89 90 87 86 86 85 82 87 89 87 92 93 94 95 93 92 90 84 91 92 61 68 68 79 90
57 58 60 58 64 70 78 86 82 84 85 89 89 82 81 82 87 90 94 94 95 93 93 93 89 83 82 77 66 68 69 74
64 56 59 71 77 81 81 84 84 85 86 89 86 86 84 81 81 90 94 95 96 94 92 92 92 87 79 76 67 70 67 72
55 54 52 69 79 84 84 84 84 81 82 84 87 88 86 86 87 91 96 96 95 95 95 95 93 92 84 76 63 63 58 62
55 54 57 65 76 82 88 89 88 83 90 81 79 86 88 88 89 94 93 95 95 95 95 96 94 92 90 82 72 56 63 63

GFSFLT2_sfc_rhum_132.txt.gz
RH
96 96 94 95 97 97 98 97 97 96 96 96 95 95 95 93 86 87 88 89 92 89 87 90 90 91 90 91 93 86 87 94
97 98 96 97 97 97 98 95 98 97 96 96 97 95 95 94 88 87 83 89 88 89 89 92 90 92 94 94 91 94 98 96
96 98 98 98 98 97 98 95 97 95 92 96 99 93 89 91 90 88 84 92 90 90 93 93 93 92 94 93 91 91 96 91
97 97 98 98 94 98 98 94 97 96 84 96 98 97 90 81 88 89 90 92 92 93 95 95 94 92 96 94 94 78 93 91
95 95 97 98 97 94 98 98 98 94 81 93 97 96 95 92 98 94 98 94 98 98 99 99 96 94 92 96 87 89 91 88
91 91 95 97 98 93 89 95 91 93 86 83 92 97 98 96 94 98 98 97 93 93 93 98 96 91 84 84 83 84 93 90
94 93 93 95 98 97 94 90 88 85 93 86 80 91 94 94 96 96 97 93 94 92 97 98 97 92 84 87 75 82 90 90
90 93 90 92 95 96 98 98 96 96 94 88 93 85 92 96 96 97 98 97 95 95 98 96 98 95 96 93 87 78 85 92
88 90 91 91 90 97 96 95 96 97 96 96 88 95 97 96 95 97 97 98 98 98 98 97 98 96 92 96 81 75 83 88
80 77 90 88 88 91 95 92 95 95 95 94 96 95 95 95 94 96 97 98 98 98 98 98 97 96 97 94 87 75 78 85
81 80 90 90 91 94 95 94 90 95 95 93 93 95 93 93 93 94 96 97 97 97 98 93 94 97 96 95 92 79 77 79
84 86 90 93 96 97 98 98 95 97 95 93 94 92 94 94 94 95 94 96 97 98 96 94 91 94 92 91 97 83 77 82
52 82 96 98 99 99 100 98 98 97 98 92 95 94 94 94 95 96 94 95 95 96 97 95 97 96 97 99 98 93 82 80
67 64 64 75 88 97 97 97 97 92 93 96 95 96 96 95 95 96 95 95 97 96 93 95 97 95 94 96 99 99 95 82
69 74 78 76 65 70 97 98 99 99 99 97 96 97 97 94 94 96 95 93 96 96 94 92 95 97 92 94 98 95 93 88
65 64 69 83 87 74 90 97 96 97 94 95 95 95 96 97 95 95 95 94 95 95 94 92 91 97 95 79 80 80 86 96
66 65 65 76 87 91 95 93 96 98 98 95 95 95 91 96 97 96 96 95 94 95 96 94 91 90 90 89 78 82 62 73
65 66 78 83 86 90 91 93 95 99 99 98 98 98 95 95 97 96 95 96 97 96 95 94 95 91 89 85 80 75 75 67
61 64 72 81 85 91 92 92 94 96 98 98 97 98 99 98 97 98 98 97 96 95 95 96 94 94 91 89 84 73 66 61
65 67 72 75 83 89 92 91 95 94 96 98 94 93 93 93 97 97 96 97 97 96 96 95 94 95 92 90 90 83 84 69

GFSFLT2_sfc_rhum_135.txt.gz
RH
97 96 95 94 96 97 97 96 96 96 96 97 97 97 94 92 90 88 88 92 91 86 87 91 91 91 92 92 90 90 96 96
98 98 97 97 96 98 98 97 97 97 97 97 98 98 96 92 89 89 89 93 92 88 88 93 92 92 93 89 90 92 97 96
99 99 99 99 98 98 99 98 98 98 97 98 99 97 97 93 89 87 87 90 91 89 90 90 93 93 93 90 93 98 98 98
97 98 97 98 98 95 95 97 97 97 97 98 97 98 98 91 90 89 87 90 90 90 92 93 95 98 98 91 93 91 95 98
97 98 98 95 95 91 91 98 96 96 97 98 93 96 98 96 98 96 98 94 98 97 98 98 96 97 96 96 90 90 94 96
93 96 98 97 96 88 89 91 94 92 97 97 96 96 98 98 96 99 99 99 100 97 100 98 96 94 95 94 91 94 98 99
94 95 96 97 92 88 86 90 89 91 97 92 97 93 95 98 98 99 99 99 98 92 93 99 97 96 94 88 84 91 93 98
93 94 92 96 96 89 86 85 80 83 86 80 79 86 94 93 98 98 99 95 96 92 93 99 98 97 96 92 89 89 94 98
94 93 90 94 95 93 89 88 84 82 83 82 85 91 93 93 96 98 98 92 92 93 98 98 99 96 94 93 89 84 95 96
87 84 94 93 90 94 92 93 90 89 86 86 82 90 92 95 94 94 96 97 96 97 99 99 99 98 99 98 90 85 90 94
74 88 96 95 93 95 95 94 97 95 95 94 88 89 91 91 93 96 96 96 97 97 99 98 99 99 96 98 94 89 94 88
63 84 91 94 96 97 98 98 98 98 98 96 96 90 91 95 97 97 98 97 98 98 98 98 97 95 92 95 98 95 97 97
87 92 95 96 98 98 98 97 98 98 98 96 96 95 93 96 96 97 96 96 96 96 98 97 99 96 99 99 100 96 96 97
84 89 98 94 94 96 98 98 97 94 97 97 96 95 95 94 95 96 96 97 97 98 95 97 97 95 95 94 99 98 98 94
77 79 90 96 92 99 99 99 99 100 99 98 97 96 96 94 94 95 96 96 98 97 95 93 96 97 92 93 99 98 96 96
79 81 87 83 76 74 90 98 98 97 96 95 96 97 98 96 96 95 96 96 95 95 95 93 91 96 95 87 84 84 90 99
79 77 86 90 92 82 90 90 96 97 98 98 98 97 96 96 97 96 96 95 94 95 97 95 92 92 92 89 93 85 82 86
85 82 87 89 89 90 92 93 96 98 99 99 98 97 98 96 94 94 94 95 95 96 94 94 95 92 92 88 87 83 83 86
74 75 80 86 92 94 94 94 92 96 97 98 96 95 98 99 97 97 96 94 93 94 95 95 95 95 94 92 88 80 69 69
68 69 76 80 81 85 88 91 97 97 96 98 98 98 98 97 98 98 96 95 95 96 97 96 96 96 94 94 93 88 83 73

GFSFLT2_sfc_rhum_138.txt.gz
RH
96 96 96 96 96 96 96 95 95 96 96 96 96 96 92 90 89 89 92 90 89 91 91 91 91 92 92 92 92 92 94 96
98 97 97 97 97 99 98 97 97 96 97 98 98 97 94 92 90 87 91 93 89 89 92 92 92 94 91 91 94 93 94 96
99 94 98 99 98 97 98 98 98 98 97 98 100 98 96 94 92 89 89 93 91 89 92 93 94 93 91 90 94 96 96 96
99 95 94 96 97 93 95 98 97 97 97 97 94 96 97 93 91 90 88 90 92 90 91 94 95 98 96 92 97 91 94 94
98 98 92 92 94 87 85 95 89 90 90 91 92 96 99 99 98 96 96 92 98 96 97 98 98 98 98 97 93 92 92 96
93 98 92 92 97 90 82 88 86 89 92 92 92 96 99 99 99 98 98 99 98 99 99 98 97 96 96 93 93 95 98 98
94 97 97 90 95 94 90 88 86 88 94 94 92 94 95 99 98 99 98 99 98 95 98 97 98 97 97 90 94 93 93 98
88 96 96 95 97 96 88 84 87 86 88 94 92 92 91 93 99 99 99 99 99 99 96 96 99 98 97 91 91 91 91 96
87 88 92 97 96 96 95 91 90 82 83 88 95 93 95 93 94 99 98 99 98 98 97 96 99 98 96 94 92 90 95 96
79 80 91 93 94 95 94 93 86 86 82 80 78 86 92 95 93 93 98 96 97 96 95 98 99 99 99 97 91 91 94 96
64 88 92 92 91 93 94 88 84 80 81 82 81 81 90 94 93 92 95 95 96 95 96 98 98 99 99 98 96 92 96 94
44 82 90 91 92 94 95 94 92 89 88 85 87 87 91 96 96 95 94 96 97 96 96 97 98 98 98 98 97 98 98 98
40 75 91 94 94 96 97 96 96 96 92 89 88 86 90 93 95 96 96 96 94 94 96 98 99 98 98 99 98 98 99 99
48 52 84 92 88 88 93 93 95 94 95 94 93 92 92 92 93 95 95 95 97 98 98 99 98 96 97 95 99 99 98 97
77 66 78 90 87 94 99 98 99 99 99 97 97 94 94 94 93 94 95 96 96 98 98 96 97 97 90 94 98 96 98 98
93 97 87 96 96 93 96 97 99 98 96 97 98 97 94 93 93 94 94 95 97 97 97 96 94 97 94 82 85 91 96 99
94 95 94 91 90 94 97 96 97 99 99 99 99 99 98 92 94 93 95 95 95 96 97 96 94 93 90 92 93 87 87 95
94 92 94 88 90 93 93 95 96 98 99 100 99 94 97 95 93 91 94 94 94 95 94 94 94 92 92 85 84 87 87 83
92 92 92 94 92 93 95 94 94 93 96 99 98 97 95 93 93 94 94 93 92 92 94 96 95 95 94 91 85 80 80 74
89 87 87 82 80 85 86 89 96 98 97 98 99 98 98 97 98 95 93 92 92 93 95 95 94 96 94 94 91 89 82 73

GFSFLT2_sfc_rhum_141.txt.gz
RH
81 84 86 97 96 96 96 95 95 95 95 96 96 93 90 89 89 90 90 92 91 91 91 91 88 90 91 92 93 89 61 67
83 88 86 86 87 98 97 97 97 97 96 97 97 95 92 90 91 91 91 90 91 91 91 92 91 90 93 93 94 92 72 70
85 87 86 88 85 88 96 98 97 98 95 98 95 69 71 73 77 92 93 90 91 91 92 92 94 92 92 96 93 61 71 81
89 86 88 88 85 86 85 80 76 76 77 82 80 81 71 65 76 90 92 92 90 91 92 94 88 64 70 92 64 59 68 71
82 87 86 88 85 83 85 82 83 83 84 84 84 88 85 73 69 66 72 88 73 74 75 66 70 67 70 77 68 66 64 68
70 82 84 87 82 80 78 82 80 82 83 88 88 90 92 79 68 70 71 62 73 67 66 77 75 70 70 69 69 64 73 93
67 76 85 84 88 79 77 79 77 76 82 88 88 88 89 80 75 68 66 67 69 68 71 68 71 71 71 66 64 77 85 93
65 72 76 82 84 85 79 76 74 74 76 86 89 84 85 87 78 75 75 67 67 69 69 77 76 75 74 69 67 76 88 89
61 68 75 80 80 84 78 73 76 72 76 86 89 86 84 85 82 75 71 70 80 77 78 88 79 75 73 70 64 65 83 85
44 61 75 78 77 77 77 73 73 72 72 80 89 89 85 88 84 79 75 78 79 82 80 88 85 76 74 70 62 62 67 76
33 60 76 83 79 74 79 80 76 71 71 76 87 88 89 82 80 78 85 77 79 80 84 86 90 84 75 73 66 60 72 84
34 39 66 78 80 82 84 84 84 79 75 74 77 78 81 82 86 88 90 91 90 85 83 89 87 87 77 77 74 70 77 81
36 36 51 76 85 90 90 85 85 84 84 81 77 79 80 85 88 90 91 91 94 92 93 95 98 87 91 93 90 78 82 80
40 38 41 57 70 75 81 79 86 86 90 89 85 85 85 85 86 90 91 92 94 96 95 98 96 95 94 95 99 96 90 81
37 41 44 49 70 74 81 87 91 97 97 95 92 88 89 88 85 89 91 93 95 95 95 96 97 97 89 81 96 93 92 88
56 60 59 49 72 78 87 88 86 88 87 91 91 92 93 93 92 91 94 94 94 94 95 94 94 97 96 76 64 60 63 92
71 74 73 63 70 80 89 88 85 88 89 88 88 88 84 92 93 93 95 96 94 95 98 96 94 90 90 90 72 71 65 64
80 85 89 88 90 93 91 85 80 84 87 98 96 89 89 90 85 90 94 94 94 95 94 95 96 93 91 80 74 72 69 61
88 83 84 88 92 91 86 84 91 90 92 89 84 95 94 93 94 96 94 92 92 93 94 94 95 95 93 88 78 74 63 60
85 79 76 76 76 80 79 76 81 85 95 92 87 86 85 84 90 91 91 91 91 90 94 93 94 95 93 93 89 80 74 60

GFSFLT2_sfc_rhum_144.txt.gz
RH
61 69 79 97 96 95 95 94 94 95 95 96 94 93 91 90 91 91 92 93 93 93 92 91 90 91 92 93 91 85 40 39
61 65 68 69 73 97 96 95 96 96 96 97 96 94 91 91 92 91 92 92 92 92 91 89 90 91 92 95 94 89 41 41
64 67 75 70 64 72 94 96 96 97 93 98 91 56 61 70 71 92 91 91 91 92 91 90 91 92 93 93 94 41 43 44
61 71 79 76 71 75 72 65 64 64 63 69 62 55 53 50 67 93 91 90 92 91 92 94 86 48 56 86 44 44 42 42
57 66 74 80 74 75 75 54 57 59 62 61 63 56 57 52 53 58 62 82 57 68 69 56 53 43 43 47 44 49 44 40
50 57 68 77 63 69 75 76 68 59 59 71 76 75 66 58 48 46 50 50 50 52 50 53 53 50 47 51 51 42 48 53
43 53 62 64 69 59 66 71 66 56 59 74 71 63 66 57 54 48 45 43 47 48 46 49 54 51 48 50 49 47 55 88
38 49 56 61 63 66 62 59 56 58 56 73 83 62 65 64 56 52 47 43 43 46 47 48 50 50 53 52 48 46 54 66
36 43 50 58 60 62 59 54 55 55 53 69 81 78 73 72 57 56 50 49 53 51 54 51 48 48 53 52 46 49 52 66
22 36 47 52 55 54 52 49 53 52 52 53 81 84 79 80 68 56 54 55 53 53 54 61 55 48 50 46 44 43 50 54
19 25 41 56 62 62 59 58 54 50 51 53 66 84 84 77 64 72 70 63 59 57 56 58 61 49 47 48 46 44 48 42
24 23 28 42 58 69 62 53 53 49 48 50 63 81 82 82 77 69 79 73 72 66 67 60 59 53 44 50 53 50 50 56
27 29 29 30 32 48 52 53 54 54 50 56 57 66 76 84 84 78 79 76 74 81 82 86 71 72 62 69 73 62 59 53
33 27 26 23 21 29 42 48 49 50 53 59 59 64 72 76 81 81 79 79 81 91 91 93 88 83 82 84 93 87 72 61
34 34 29 27 30 25 36 49 56 66 79 74 64 66 67 75 71 80 88 90 90 93 94 93 96 96 78 65 94 83 76 61
40 39 34 31 32 37 39 49 60 66 65 78 77 72 70 78 78 78 94 96 94 93 94 94 94 94 95 76 65 56 64 79
51 45 44 45 47 47 43 52 54 64 82 86 86 80 76 76 79 78 84 89 95 90 93 95 94 92 95 88 76 67 56 46
76 79 76 78 67 58 60 70 69 70 75 93 92 90 89 84 77 74 75 84 89 92 91 94 96 94 93 89 77 77 64 54
80 84 81 84 89 87 78 71 70 80 78 77 82 84 81 84 87 88 75 64 77 82 89 93 95 95 92 91 82 69 61 52
84 78 84 83 85 88 89 92 93 82 77 69 60 66 84 90 90 86 91 81 81 87 89 94 94 95 92 90 88 84 73 69